Regional Weather Roundup
Issued by NWS Albany, NY

Current Version | Previous Version | Text Only | Print | Product List | Glossary On
Versions: 1 2 3 4 5 6 7 8 9 10 11 12 13 14 15 16 17 18 19 20 21 22 23 24 25 26 27 28 29 30 31 32 33 34 35 36 37 38
000 ASUS41 KALY 230310 RWRALY NEW YORK STATE HOURLY WEATHER ROUNDUP NATIONAL WEATHER SERVICE ALBANY NY 1100 PM EDT WED OCT 22 2014 NOTE: "FAIR" INDICATES FEW OR NO CLOUDS BELOW 12,000 FEET WITH NO SIGNIFICANT WEATHER AND/OR NO OBSTRUCTIONS TO VISIBILITY. NYZ032-033-038>043-046>054-057>066-NYZ062>081-230400- EAST CITY SKY/WX TMP DP RH WIND PRES REMARKS ALBANY LGT RAIN 52 44 74 N17G28 29.93F GLENS FALLS CLOUDY 53 41 63 N14G28 29.98F POUGHKEEPSIE RAIN 50 46 86 NE13G26 29.84R FOG NEWBURGH LGT RAIN 50 48 93 N21G32 29.83F FOG MONTGOMERY LGT RAIN 50 46 86 N13G24 29.81F WHITE PLAINS RAIN 49 46 90 N20G31 29.74R FOG ISLIP LGT RAIN 51 47 86 N26G41 29.65F NEW YORK CITY HVY RAIN 51 47 86 N22G33 29.73F FOG CENTRAL PARK RAIN 50 47 89 N12G24 29.76F FOG $$ NYZ005>009-017-018-044>046-055-056-230400- CENTRAL CITY SKY/WX TMP DP RH WIND PRES REMARKS FULTON MOCLDY 49 39 68 N15G23 30.10F SYRACUSE CLOUDY 47 43 86 NW9 30.09F ROME MOCLDY 48 40 73 N12 30.05F ELMIRA CLOUDY 49 43 80 N12G22 30.05F BINGHAMTON CLOUDY 44 42 93 N15G25 30.00F MONTICELLO CLOUDY 45 43 93 N15G28 29.87F $$ NYZ026>034-041>043-230400- NORTH CITY SKY/WX TMP DP RH WIND PRES REMARKS WATERTOWN MOCLDY 48 36 63 NE9 30.13F FORT DRUM NOT AVBL MASSENA PTCLDY 46 35 65 NE15 30.20S SARANAC LAKE CLOUDY 43 37 79 NE8 30.08F PLATTSBURGH CLOUDY 47 37 68 N23 30.13F $$ NYZ001>004-010>016-019>021-230400- WEST CITY SKY/WX TMP DP RH WIND PRES REMARKS NIAGARA FALLS MOCLDY 47 41 80 N6 30.21S BUFFALO MOCLDY 46 40 79 N8 30.19F DUNKIRK CLOUDY 46 43 89 S3 30.20F JAMESTOWN CLOUDY 43 39 87 N9 30.17F WELLSVILLE CLOUDY 42 40 92 N9 30.12F ROCHESTER MOCLDY 50 42 74 N12 30.17F PENN YAN CLOUDY 48 41 76 N8G18 30.11F $$ KEY WCI = WIND CHILL INDEX VSB = VISIBILITY HX = HEAT INDEX $$

USA.gov is the U.S. government's official web portal to all federal, state and local government web resources and services.